owner,sensor,date,latitude,longitude,vertical_datum,direction_of_sea_water_velocity,sea_water_speed,upward_sea_water_velocity,qcFlag 
TABS,ioos:station:wmo:42050:1,2017-06-01T00:00:00Z,28.8425,-94.2433,2.0,110.7135972,8.510094007,-99999.0,'11133222,11111222,99999999' 
TABS,ioos:station:wmo:42050:1,2017-06-01T00:30:00Z,28.8425,-94.2433,2.0,98.28766683,8.741287091,-99999.0,'11133222,11111222,99999999' 
TABS,ioos:station:wmo:42050:1,2017-06-01T01:00:00Z,28.8425,-94.2433,2.0,87.81895661,9.196662438,-99999.0,'11133222,11111222,99999999' 
TABS,ioos:station:wmo:42050:1,2017-06-01T01:30:00Z,28.8425,-94.2433,2.0,69.45117916,9.344565265,-99999.0,'11133222,11111222,99999999' 
TABS,ioos:station:wmo:42050:1,2017-06-01T02:00:00Z,28.8425,-94.2433,2.0,70.22733931,19.77595004,-99999.0,'11111222,11111222,99999999' 
TABS,ioos:station:wmo:42050:1,2017-06-01T02:30:00Z,28.8425,-94.2433,2.0,70.11545818,19.87495157,-99999.0,'11111222,11111222,99999999' 
TABS,ioos:station:wmo:42050:1,2017-06-01T03:00:00Z,28.8425,-94.2433,2.0,74.23403727,21.93521598,-99999.0,'11111222,11111222,99999999' 
TABS,ioos:station:wmo:42050:1,2017-06-01T03:30:00Z,28.8425,-94.2433,2.0,78.33356396,21.11623309,-99999.0,'11111222,11111222,99999999' 
TABS,ioos:station:wmo:42050:1,2017-06-01T04:00:00Z,28.8425,-94.2433,2.0,80.99732318,23.77285847,-99999.0,'11111222,11111222,99999999' 
TABS,ioos:station:wmo:42050:1,2017-06-01T04:30:00Z,28.8425,-94.2433,2.0,81.74326167,20.47220555,-99999.0,'11111222,11111222,99999999' 
TABS,ioos:station:wmo:42050:1,2017-06-01T05:00:00Z,28.8425,-94.2433,2.0,84.32165405,17.68678885,-99999.0,'11111222,11111222,99999999' 
TABS,ioos:station:wmo:42050:1,2017-06-01T05:30:00Z,28.8425,-94.2433,2.0,72.73103249,18.49366648,-99999.0,'11111222,11111222,99999999' 
TABS,ioos:station:wmo:42050:1,2017-06-01T06:00:00Z,28.8425,-94.2433,2.0,79.36144414,16.73769996,-99999.0,'11111222,11111222,99999999' 
TABS,ioos:station:wmo:42050:1,2017-06-01T06:30:00Z,28.8425,-94.2433,2.0,91.45635523,17.70571941,-99999.0,'11111222,11111222,99999999' 
TABS,ioos:station:wmo:42050:1,2017-06-01T07:00:00Z,28.8425,-94.2433,2.0,93.9135924,16.84929079,-99999.0,'11111222,11111222,99999999' 
TABS,ioos:station:wmo:42050:1,2017-06-01T07:30:00Z,28.8425,-94.2433,2.0,94.36452078,18.00220542,-99999.0,'11111222,11111222,99999999' 
TABS,ioos:station:wmo:42050:1,2017-06-01T08:00:00Z,28.8425,-94.2433,2.0,99.28245721,15.18889726,-99999.0,'11111222,11111222,99999999' 
TABS,ioos:station:wmo:42050:1,2017-06-01T08:30:00Z,28.8425,-94.2433,2.0,111.501384,14.89668419,-99999.0,'11111222,11111222,99999999' 
TABS,ioos:station:wmo:42050:1,2017-06-01T09:00:00Z,28.8425,-94.2433,2.0,101.1817281,14.9029024,-99999.0,'11111222,11111222,99999999' 
TABS,ioos:station:wmo:42050:1,2017-06-01T09:30:00Z,28.8425,-94.2433,2.0,101.9711074,13.59567578,-99999.0,'11111222,11111222,99999999' 
TABS,ioos:station:wmo:42050:1,2017-06-01T10:00:00Z,28.8425,-94.2433,2.0,88.11698579,10.95591621,-99999.0,'11111222,11111222,99999999' 
TABS,ioos:station:wmo:42050:1,2017-06-01T10:30:00Z,28.8425,-94.2433,2.0,79.77785527,13.63645115,-99999.0,'11111222,11111222,99999999' 
TABS,ioos:station:wmo:42050:1,2017-06-01T11:00:00Z,28.8425,-94.2433,2.0,79.21332733,11.16731839,-99999.0,'11111222,11111222,99999999' 
TABS,ioos:station:wmo:42050:1,2017-06-01T11:30:00Z,28.8425,-94.2433,2.0,74.78981631,12.3112672,-99999.0,'11111222,11111222,99999999' 
TABS,ioos:station:wmo:42050:1,2017-06-01T12:00:00Z,28.8425,-94.2433,2.0,63.59059955,13.1749611,-99999.0,'11111222,11111222,99999999' 
TABS,ioos:station:wmo:42050:1,2017-06-01T12:30:00Z,28.8425,-94.2433,2.0,65.64321885,15.78494536,-99999.0,'11111222,11111222,99999999' 
TABS,ioos:station:wmo:42050:1,2017-06-01T13:00:00Z,28.8425,-94.2433,2.0,51.54200566,15.08179366,-99999.0,'11111222,11111222,99999999' 
TABS,ioos:station:wmo:42050:1,2017-06-01T13:30:00Z,28.8425,-94.2433,2.0,52.9007704,15.48412413,-99999.0,'11111222,11111222,99999999' 
TABS,ioos:station:wmo:42050:1,2017-06-01T14:00:00Z,28.8425,-94.2433,2.0,66.45788885,14.67113152,-99999.0,'11111222,11111222,99999999' 
TABS,ioos:station:wmo:42050:1,2017-06-01T14:30:00Z,28.8425,-94.2433,2.0,69.00625146,13.17453604,-99999.0,'11111222,11111222,99999999' 
TABS,ioos:station:wmo:42050:1,2017-06-01T15:00:00Z,28.8425,-94.2433,2.0,90.16464221,10.4400431,-99999.0,'11111222,11111222,99999999' 
TABS,ioos:station:wmo:42050:1,2017-06-01T15:30:00Z,28.8425,-94.2433,2.0,123.7600751,9.069354994,-99999.0,'11133222,11111222,99999999' 
TABS,ioos:station:wmo:42050:1,2017-06-01T16:00:00Z,28.8425,-94.2433,2.0,164.2027582,9.550712015,-99999.0,'11133222,11111222,99999999' 
TABS,ioos:station:wmo:42050:1,2017-06-01T16:30:00Z,28.8425,-94.2433,2.0,170.9755324,12.68704063,-99999.0,'11111222,11111222,99999999' 
TABS,ioos:station:wmo:42050:1,2017-06-01T17:00:00Z,28.8425,-94.2433,2.0,176.2693099,13.67898388,-99999.0,'11111222,11111222,99999999' 
TABS,ioos:station:wmo:42050:1,2017-06-01T17:30:00Z,28.8425,-94.2433,2.0,188.7634895,12.40482567,-99999.0,'11111222,11111222,99999999' 
TABS,ioos:station:wmo:42050:1,2017-06-01T18:00:00Z,28.8425,-94.2433,2.0,172.3772625,8.141946942,-99999.0,'11133222,11111222,99999999' 
TABS,ioos:station:wmo:42050:1,2017-06-01T18:30:00Z,28.8425,-94.2433,2.0,180.5955633,5.77031195,-99999.0,'11133222,11111222,99999999' 
TABS,ioos:station:wmo:42050:1,2017-06-01T19:00:00Z,28.8425,-94.2433,2.0,171.4840271,7.563385485,-99999.0,'11133222,11111222,99999999' 
TABS,ioos:station:wmo:42050:1,2017-06-01T19:30:00Z,28.8425,-94.2433,2.0,144.5803625,8.454708747,-99999.0,'11133222,11111222,99999999' 
TABS,ioos:station:wmo:42050:1,2017-06-01T20:00:00Z,28.8425,-94.2433,2.0,121.4735318,6.167333297,-99999.0,'11133222,11111222,99999999' 
TABS,ioos:station:wmo:42050:1,2017-06-01T20:30:00Z,28.8425,-94.2433,2.0,97.29175463,9.375825297,-99999.0,'11133222,11111222,99999999' 
TABS,ioos:station:wmo:42050:1,2017-06-01T21:00:00Z,28.8425,-94.2433,2.0,72.7135384,12.14874891,-99999.0,'11111222,11111222,99999999' 
TABS,ioos:station:wmo:42050:1,2017-06-01T21:30:00Z,28.8425,-94.2433,2.0,77.14475421,12.94445055,-99999.0,'11111222,11111222,99999999' 
TABS,ioos:station:wmo:42050:1,2017-06-01T22:00:00Z,28.8425,-94.2433,2.0,73.62445099,13.90402819,-99999.0,'11111222,11111222,99999999' 
TABS,ioos:station:wmo:42050:1,2017-06-01T22:30:00Z,28.8425,-94.2433,2.0,79.51935343,15.44772475,-99999.0,'11111222,11111222,99999999' 
TABS,ioos:station:wmo:42050:1,2017-06-01T23:00:00Z,28.8425,-94.2433,2.0,79.46476743,16.681202,-99999.0,'11111222,11111222,99999999' 
TABS,ioos:station:wmo:42050:1,2017-06-01T23:30:00Z,28.8425,-94.2433,2.0,87.38653536,19.07984539,-99999.0,'11111222,11111222,99999999' 
TABS,ioos:station:wmo:42050:1,2017-06-02T00:00:00Z,28.8425,-94.2433,2.0,90.46962592,19.52065573,-99999.0,'11111222,11111222,99999999' 
TABS,ioos:station:wmo:42050:1,2017-06-02T00:30:00Z,28.8425,-94.2433,2.0,85.11003598,21.46813918,-99999.0,'11111222,11111222,99999999' 
TABS,ioos:station:wmo:42050:1,2017-06-02T01:00:00Z,28.8425,-94.2433,2.0,93.25721432,19.71184416,-99999.0,'11111222,11111222,99999999' 
TABS,ioos:station:wmo:42050:1,2017-06-02T01:30:00Z,28.8425,-94.2433,2.0,101.4724464,13.82624316,-99999.0,'11111222,11111222,99999999' 
TABS,ioos:station:wmo:42050:1,2017-06-02T02:00:00Z,28.8425,-94.2433,2.0,102.4985067,14.37056018,-99999.0,'11111222,11111222,99999999' 
TABS,ioos:station:wmo:42050:1,2017-06-02T02:30:00Z,28.8425,-94.2433,2.0,104.8045827,18.6284111,-99999.0,'11111222,11111222,99999999' 
TABS,ioos:station:wmo:42050:1,2017-06-02T03:00:00Z,28.8425,-94.2433,2.0,105.9453586,14.85142417,-99999.0,'11111222,11111222,99999999' 
TABS,ioos:station:wmo:42050:1,2017-06-02T03:30:00Z,28.8425,-94.2433,2.0,104.9644203,14.52251356,-99999.0,'11111222,11111222,99999999' 
TABS,ioos:station:wmo:42050:1,2017-06-02T04:00:00Z,28.8425,-94.2433,2.0,99.32978836,14.92746797,-99999.0,'11111222,11111222,99999999' 
TABS,ioos:station:wmo:42050:1,2017-06-02T04:30:00Z,28.8425,-94.2433,2.0,104.127573,12.16802778,-99999.0,'11111222,11111222,99999999' 
TABS,ioos:station:wmo:42050:1,2017-06-02T05:00:00Z,28.8425,-94.2433,2.0,106.1875618,11.04800887,-99999.0,'11111222,11111222,99999999' 
TABS,ioos:station:wmo:42050:1,2017-06-02T05:30:00Z,28.8425,-94.2433,2.0,106.4416034,14.27367157,-99999.0,'11111222,11111222,99999999' 
TABS,ioos:station:wmo:42050:1,2017-06-02T06:00:00Z,28.8425,-94.2433,2.0,107.3963429,12.91053833,-99999.0,'11111222,11111222,99999999' 
TABS,ioos:station:wmo:42050:1,2017-06-02T06:30:00Z,28.8425,-94.2433,2.0,113.3128302,13.16480915,-99999.0,'11111222,11111222,99999999' 
TABS,ioos:station:wmo:42050:1,2017-06-02T07:00:00Z,28.8425,-94.2433,2.0,117.642523,14.26863694,-99999.0,'11111222,11111222,99999999' 
TABS,ioos:station:wmo:42050:1,2017-06-02T07:30:00Z,28.8425,-94.2433,2.0,130.3970373,13.39337149,-99999.0,'11111222,11111222,99999999' 
TABS,ioos:station:wmo:42050:1,2017-06-02T08:00:00Z,28.8425,-94.2433,2.0,140.2874347,11.81653926,-99999.0,'11111222,11111222,99999999' 
TABS,ioos:station:wmo:42050:1,2017-06-02T08:30:00Z,28.8425,-94.2433,2.0,137.8880372,7.858867603,-99999.0,'11133222,11111222,99999999' 
TABS,ioos:station:wmo:42050:1,2017-06-02T09:00:00Z,28.8425,-94.2433,2.0,130.4106092,9.456050973,-99999.0,'11133222,11111222,99999999' 
TABS,ioos:station:wmo:42050:1,2017-06-02T09:30:00Z,28.8425,-94.2433,2.0,157.9273715,6.280286618,-99999.0,'11133222,11111222,99999999' 
TABS,ioos:station:wmo:42050:1,2017-06-02T10:00:00Z,28.8425,-94.2433,2.0,142.4172681,4.984385619,-99999.0,'11133222,11111222,99999999' 
TABS,ioos:station:wmo:42050:1,2017-06-02T10:30:00Z,28.8425,-94.2433,2.0,108.589968,4.673863498,-99999.0,'11133222,11111222,99999999' 
TABS,ioos:station:wmo:42050:1,2017-06-02T11:00:00Z,28.8425,-94.2433,2.0,69.6680462,4.489732731,-99999.0,'11133222,11111222,99999999' 
TABS,ioos:station:wmo:42050:1,2017-06-02T11:30:00Z,28.8425,-94.2433,2.0,67.2394737,5.324631443,-99999.0,'11133222,11111222,99999999' 
TABS,ioos:station:wmo:42050:1,2017-06-02T12:00:00Z,28.8425,-94.2433,2.0,52.11731277,6.449007676,-99999.0,'11133222,11111222,99999999' 
TABS,ioos:station:wmo:42050:1,2017-06-02T12:30:00Z,28.8425,-94.2433,2.0,46.42036745,7.702759246,-99999.0,'11133222,11111222,99999999' 
TABS,ioos:station:wmo:42050:1,2017-06-02T13:00:00Z,28.8425,-94.2433,2.0,51.78780327,7.598085285,-99999.0,'11133222,11111222,99999999' 
TABS,ioos:station:wmo:42050:1,2017-06-02T13:30:00Z,28.8425,-94.2433,2.0,41.87088429,6.217668373,-99999.0,'11133222,11111222,99999999' 
TABS,ioos:station:wmo:42050:1,2017-06-02T14:00:00Z,28.8425,-94.2433,2.0,48.46660852,7.133617596,-99999.0,'11133222,11111222,99999999' 
TABS,ioos:station:wmo:42050:1,2017-06-02T14:30:00Z,28.8425,-94.2433,2.0,3.697848264,5.892266118,-99999.0,'11133222,11111222,99999999' 
TABS,ioos:station:wmo:42050:1,2017-06-02T15:00:00Z,28.8425,-94.2433,2.0,3.97152731,6.786295013,-99999.0,'11133222,11111222,99999999' 
TABS,ioos:station:wmo:42050:1,2017-06-02T15:30:00Z,28.8425,-94.2433,2.0,352.1638049,5.794109077,-99999.0,'11133222,11111222,99999999' 
TABS,ioos:station:wmo:42050:1,2017-06-02T16:00:00Z,28.8425,-94.2433,2.0,325.6077218,2.035902748,-99999.0,'11133222,11111222,99999999' 
TABS,ioos:station:wmo:42050:1,2017-06-02T16:30:00Z,28.8425,-94.2433,2.0,318.9396053,4.734659439,-99999.0,'11133222,11111222,99999999' 
TABS,ioos:station:wmo:42050:1,2017-06-02T17:00:00Z,28.8425,-94.2433,2.0,246.5261138,2.736457564,-99999.0,'11133222,11111222,99999999' 
TABS,ioos:station:wmo:42050:1,2017-06-02T17:30:00Z,28.8425,-94.2433,2.0,299.1147958,3.720026882,-99999.0,'11133222,11111222,99999999' 
TABS,ioos:station:wmo:42050:1,2017-06-02T18:00:00Z,28.8425,-94.2433,2.0,249.6081296,4.075389552,-99999.0,'11133222,11111222,99999999' 
TABS,ioos:station:wmo:42050:1,2017-06-02T18:30:00Z,28.8425,-94.2433,2.0,265.7445649,7.951918008,-99999.0,'11133222,11111222,99999999' 
TABS,ioos:station:wmo:42050:1,2017-06-02T19:00:00Z,28.8425,-94.2433,2.0,253.8170955,7.965607321,-99999.0,'11133222,11111222,99999999' 
TABS,ioos:station:wmo:42050:1,2017-06-02T19:30:00Z,28.8425,-94.2433,2.0,238.5396025,8.909685741,-99999.0,'11133222,11111222,99999999' 
TABS,ioos:station:wmo:42050:1,2017-06-02T20:00:00Z,28.8425,-94.2433,2.0,241.9038159,11.55117743,-99999.0,'11111222,11111222,99999999' 
TABS,ioos:station:wmo:42050:1,2017-06-02T20:30:00Z,28.8425,-94.2433,2.0,251.0042181,14.22460544,-99999.0,'11111222,11111222,99999999' 
TABS,ioos:station:wmo:42050:1,2017-06-02T21:00:00Z,28.8425,-94.2433,2.0,247.6194964,14.89166881,-99999.0,'11111222,11111222,99999999' 
TABS,ioos:station:wmo:42050:1,2017-06-02T21:30:00Z,28.8425,-94.2433,2.0,252.4981689,16.69271697,-99999.0,'11111222,11111222,99999999' 
TABS,ioos:station:wmo:42050:1,2017-06-02T22:00:00Z,28.8425,-94.2433,2.0,254.3912713,21.4821903,-99999.0,'11111222,11111222,99999999' 
TABS,ioos:station:wmo:42050:1,2017-06-02T22:30:00Z,28.8425,-94.2433,2.0,263.9411304,18.19160521,-99999.0,'11111222,11111222,99999999' 
TABS,ioos:station:wmo:42050:1,2017-06-02T23:00:00Z,28.8425,-94.2433,2.0,271.2055821,20.44452249,-99999.0,'11111222,11111222,99999999' 
TABS,ioos:station:wmo:42050:1,2017-06-02T23:30:00Z,28.8425,-94.2433,2.0,276.2932349,18.70268965,-99999.0,'11111222,11111222,99999999' 
TABS,ioos:station:wmo:42050:1,2017-06-03T00:00:00Z,28.8425,-94.2433,2.0,279.7231282,16.63899336,-99999.0,'11111222,11111222,99999999' 
TABS,ioos:station:wmo:42050:1,2017-06-03T00:30:00Z,28.8425,-94.2433,2.0,292.800984,16.82469911,-99999.0,'11111222,11111222,99999999' 
TABS,ioos:station:wmo:42050:1,2017-06-03T01:00:00Z,28.8425,-94.2433,2.0,290.0627577,13.58429976,-99999.0,'11111222,11111222,99999999' 
TABS,ioos:station:wmo:42050:1,2017-06-03T01:30:00Z,28.8425,-94.2433,2.0,303.490216,11.90671239,-99999.0,'11111222,11111222,99999999' 
TABS,ioos:station:wmo:42050:1,2017-06-03T02:00:00Z,28.8425,-94.2433,2.0,312.7235548,16.37537786,-99999.0,'11111222,11111222,99999999' 
TABS,ioos:station:wmo:42050:1,2017-06-03T02:30:00Z,28.8425,-94.2433,2.0,312.372591,16.81146335,-99999.0,'11111222,11111222,99999999' 
TABS,ioos:station:wmo:42050:1,2017-06-03T03:00:00Z,28.8425,-94.2433,2.0,327.2626616,14.34930312,-99999.0,'11111222,11111222,99999999' 
TABS,ioos:station:wmo:42050:1,2017-06-03T03:30:00Z,28.8425,-94.2433,2.0,326.1447474,11.52394464,-99999.0,'11111222,11111222,99999999' 
TABS,ioos:station:wmo:42050:1,2017-06-03T04:00:00Z,28.8425,-94.2433,2.0,327.5290941,9.64841956,-99999.0,'11133222,11111222,99999999' 
TABS,ioos:station:wmo:42050:1,2017-06-03T04:30:00Z,28.8425,-94.2433,2.0,326.7685771,10.40096149,-99999.0,'11111222,11111222,99999999' 
TABS,ioos:station:wmo:42050:1,2017-06-03T05:00:00Z,28.8425,-94.2433,2.0,332.5769239,10.7477486,-99999.0,'11111222,11111222,99999999' 
TABS,ioos:station:wmo:42050:1,2017-06-03T05:30:00Z,28.8425,-94.2433,2.0,332.1988167,9.326574934,-99999.0,'11133222,11111222,99999999' 
TABS,ioos:station:wmo:42050:1,2017-06-03T06:00:00Z,28.8425,-94.2433,2.0,325.9665619,11.56016003,-99999.0,'11111222,11111222,99999999' 
TABS,ioos:station:wmo:42050:1,2017-06-03T06:30:00Z,28.8425,-94.2433,2.0,334.1407057,13.80205782,-99999.0,'11111222,11111222,99999999' 
TABS,ioos:station:wmo:42050:1,2017-06-03T07:00:00Z,28.8425,-94.2433,2.0,327.7681566,9.374694662,-99999.0,'11133222,11111222,99999999' 
TABS,ioos:station:wmo:42050:1,2017-06-03T07:30:00Z,28.8425,-94.2433,2.0,59.80509309,5.368388958,-99999.0,'11133222,11111222,99999999' 
TABS,ioos:station:wmo:42050:1,2017-06-03T08:00:00Z,28.8425,-94.2433,2.0,73.31616588,7.140595213,-99999.0,'11133222,11111222,99999999' 
TABS,ioos:station:wmo:42050:1,2017-06-03T08:30:00Z,28.8425,-94.2433,2.0,70.07292577,4.371750222,-99999.0,'11133222,11111222,99999999' 
TABS,ioos:station:wmo:42050:1,2017-06-03T09:00:00Z,28.8425,-94.2433,2.0,73.60041073,6.41081898,-99999.0,'11133222,11111222,99999999' 
TABS,ioos:station:wmo:42050:1,2017-06-03T09:30:00Z,28.8425,-94.2433,2.0,90.96473187,7.721094482,-99999.0,'11133222,11111222,99999999' 
TABS,ioos:station:wmo:42050:1,2017-06-03T10:00:00Z,28.8425,-94.2433,2.0,88.71182295,7.561911134,-99999.0,'11133222,11111222,99999999' 
TABS,ioos:station:wmo:42050:1,2017-06-03T10:30:00Z,28.8425,-94.2433,2.0,95.97696304,7.490720927,-99999.0,'11133222,11111222,99999999' 
TABS,ioos:station:wmo:42050:1,2017-06-03T11:00:00Z,28.8425,-94.2433,2.0,74.88656228,5.676336847,-99999.0,'11133222,11111222,99999999' 
TABS,ioos:station:wmo:42050:1,2017-06-03T11:30:00Z,28.8425,-94.2433,2.0,79.31393306,9.006186762,-99999.0,'11133222,11111222,99999999' 
TABS,ioos:station:wmo:42050:1,2017-06-03T12:00:00Z,28.8425,-94.2433,2.0,76.61713243,11.06034358,-99999.0,'11111222,11111222,99999999' 
TABS,ioos:station:wmo:42050:1,2017-06-03T12:30:00Z,28.8425,-94.2433,2.0,75.38427147,14.14782669,-99999.0,'11111222,11111222,99999999' 
TABS,ioos:station:wmo:42050:1,2017-06-03T13:00:00Z,28.8425,-94.2433,2.0,66.26121221,13.78647526,-99999.0,'11111222,11111222,99999999' 
TABS,ioos:station:wmo:42050:1,2017-06-03T13:30:00Z,28.8425,-94.2433,2.0,69.17461069,14.93578588,-99999.0,'11111222,11111222,99999999' 
TABS,ioos:station:wmo:42050:1,2017-06-03T14:00:00Z,28.8425,-94.2433,2.0,81.53662453,15.55944086,-99999.0,'11111222,11111222,99999999' 
TABS,ioos:station:wmo:42050:1,2017-06-03T14:30:00Z,28.8425,-94.2433,2.0,74.71125506,16.42116013,-99999.0,'11111222,11111222,99999999' 
TABS,ioos:station:wmo:42050:1,2017-06-03T15:00:00Z,28.8425,-94.2433,2.0,59.91553376,17.99403512,-99999.0,'11111222,11111222,99999999' 
TABS,ioos:station:wmo:42050:1,2017-06-03T15:30:00Z,28.8425,-94.2433,2.0,71.7640367,20.03631204,-99999.0,'11111222,11111222,99999999' 
TABS,ioos:station:wmo:42050:1,2017-06-03T16:00:00Z,28.8425,-94.2433,2.0,75.187554,18.61874324,-99999.0,'11111222,11111222,99999999' 
TABS,ioos:station:wmo:42050:1,2017-06-03T16:30:00Z,28.8425,-94.2433,2.0,73.42663061,21.8059258,-99999.0,'11111222,11111222,99999999' 
TABS,ioos:station:wmo:42050:1,2017-06-03T17:00:00Z,28.8425,-94.2433,2.0,76.06332566,22.33756477,-99999.0,'11111222,11111222,99999999' 
TABS,ioos:station:wmo:42050:1,2017-06-03T17:30:00Z,28.8425,-94.2433,2.0,74.23584143,26.06017652,-99999.0,'11111222,11111222,99999999' 
TABS,ioos:station:wmo:42050:1,2017-06-03T18:00:00Z,28.8425,-94.2433,2.0,81.88357637,23.72767582,-99999.0,'11111222,11111222,99999999' 
TABS,ioos:station:wmo:42050:1,2017-06-03T18:30:00Z,28.8425,-94.2433,2.0,83.33834038,22.24015513,-99999.0,'11111222,11111222,99999999' 
TABS,ioos:station:wmo:42050:1,2017-06-03T19:00:00Z,28.8425,-94.2433,2.0,91.58306384,17.73676972,-99999.0,'11111222,11111222,99999999' 
TABS,ioos:station:wmo:42050:1,2017-06-03T19:30:00Z,28.8425,-94.2433,2.0,93.1160649,15.45284763,-99999.0,'11111222,11111222,99999999' 
TABS,ioos:station:wmo:42050:1,2017-06-03T20:00:00Z,28.8425,-94.2433,2.0,85.04376527,16.55188811,-99999.0,'11111222,11111222,99999999' 
TABS,ioos:station:wmo:42050:1,2017-06-03T20:30:00Z,28.8425,-94.2433,2.0,82.14813488,13.68833445,-99999.0,'11111222,11111222,99999999' 
TABS,ioos:station:wmo:42050:1,2017-06-03T21:00:00Z,28.8425,-94.2433,2.0,56.83911168,10.51201693,-99999.0,'11111222,11111222,99999999' 
TABS,ioos:station:wmo:42050:1,2017-06-03T21:30:00Z,28.8425,-94.2433,2.0,58.63223302,9.240573575,-99999.0,'11133222,11111222,99999999' 
TABS,ioos:station:wmo:42050:1,2017-06-03T22:00:00Z,28.8425,-94.2433,2.0,43.5937843,4.321724193,-99999.0,'11133222,11111222,99999999' 
TABS,ioos:station:wmo:42050:1,2017-06-03T22:30:00Z,28.8425,-94.2433,2.0,7.257227529,5.383121771,-99999.0,'11133222,11111222,99999999' 
TABS,ioos:station:wmo:42050:1,2017-06-03T23:00:00Z,28.8425,-94.2433,2.0,5.358471091,7.281819827,-99999.0,'11133222,11111222,99999999' 
TABS,ioos:station:wmo:42050:1,2017-06-03T23:30:00Z,28.8425,-94.2433,2.0,17.05780252,9.340904667,-99999.0,'11133222,11111222,99999999' 
TABS,ioos:station:wmo:42050:1,2017-06-04T00:00:00Z,28.8425,-94.2433,2.0,19.03153596,9.721368216,-99999.0,'11133222,11111222,99999999' 
TABS,ioos:station:wmo:42050:1,2017-06-04T00:30:00Z,28.8425,-94.2433,2.0,9.423467516,9.650222795,-99999.0,'11133222,11111222,99999999' 
TABS,ioos:station:wmo:42050:1,2017-06-04T01:00:00Z,28.8425,-94.2433,2.0,18.02628568,15.5113668,-99999.0,'11111222,11111222,99999999' 
TABS,ioos:station:wmo:42050:1,2017-06-04T01:30:00Z,28.8425,-94.2433,2.0,34.78516614,3.628401852,-99999.0,'11133222,11111222,99999999' 
TABS,ioos:station:wmo:42050:1,2017-06-04T02:00:00Z,28.8425,-94.2433,2.0,25.61981262,20.32862514,-99999.0,'11111222,11111222,99999999' 
TABS,ioos:station:wmo:42050:1,2017-06-04T02:30:00Z,28.8425,-94.2433,2.0,32.41211801,23.74985053,-99999.0,'11111222,11111222,99999999' 
TABS,ioos:station:wmo:42050:1,2017-06-04T03:00:00Z,28.8425,-94.2433,2.0,38.1188715,29.27295339,-99999.0,'11111222,11111222,99999999' 
TABS,ioos:station:wmo:42050:1,2017-06-04T03:30:00Z,28.8425,-94.2433,2.0,32.85420716,30.41467573,-99999.0,'11111222,11111222,99999999' 
TABS,ioos:station:wmo:42050:1,2017-06-04T04:00:00Z,28.8425,-94.2433,2.0,39.05376223,33.17209068,-99999.0,'11111222,11111222,99999999' 
TABS,ioos:station:wmo:42050:1,2017-06-04T04:30:00Z,28.8425,-94.2433,2.0,47.8362863,34.72612417,-99999.0,'11111222,11111222,99999999' 
TABS,ioos:station:wmo:42050:1,2017-06-04T05:00:00Z,28.8425,-94.2433,2.0,56.13891615,29.72096903,-99999.0,'11111222,11111222,99999999' 
TABS,ioos:station:wmo:42050:1,2017-06-04T05:30:00Z,28.8425,-94.2433,2.0,66.86207653,27.30650106,-99999.0,'11111222,11111222,99999999' 
TABS,ioos:station:wmo:42050:1,2017-06-04T06:00:00Z,28.8425,-94.2433,2.0,69.62555996,23.63891918,-99999.0,'11111222,11111222,99999999' 
TABS,ioos:station:wmo:42050:1,2017-06-04T06:30:00Z,28.8425,-94.2433,2.0,78.37716644,22.98123147,-99999.0,'11111222,11111222,99999999' 
TABS,ioos:station:wmo:42050:1,2017-06-04T07:00:00Z,28.8425,-94.2433,2.0,84.56607886,21.22538574,-99999.0,'11111222,11111222,99999999' 
TABS,ioos:station:wmo:42050:1,2017-06-04T07:30:00Z,28.8425,-94.2433,2.0,86.54431436,20.7377072,-99999.0,'11111222,11111222,99999999' 
TABS,ioos:station:wmo:42050:1,2017-06-04T08:00:00Z,28.8425,-94.2433,2.0,96.62221526,24.45314908,-99999.0,'11111222,11111222,99999999' 
TABS,ioos:station:wmo:42050:1,2017-06-04T08:30:00Z,28.8425,-94.2433,2.0,95.5253404,25.23726015,-99999.0,'11111222,11111222,99999999' 
TABS,ioos:station:wmo:42050:1,2017-06-04T09:00:00Z,28.8425,-94.2433,2.0,102.1399741,26.53337521,-99999.0,'11111222,11111222,99999999' 
TABS,ioos:station:wmo:42050:1,2017-06-04T09:30:00Z,28.8425,-94.2433,2.0,93.6485056,26.24318959,-99999.0,'11111222,11111222,99999999' 
TABS,ioos:station:wmo:42050:1,2017-06-04T10:00:00Z,28.8425,-94.2433,2.0,89.2298286,26.78241961,-99999.0,'11111222,11111222,99999999' 
TABS,ioos:station:wmo:42050:1,2017-06-04T10:30:00Z,28.8425,-94.2433,2.0,89.50287021,23.05086766,-99999.0,'11111222,11111222,99999999' 
TABS,ioos:station:wmo:42050:1,2017-06-04T11:00:00Z,28.8425,-94.2433,2.0,83.35161684,14.16525679,-99999.0,'11111222,11111222,99999999' 
TABS,ioos:station:wmo:42050:1,2017-06-04T11:30:00Z,28.8425,-94.2433,2.0,79.90612625,23.56473849,-99999.0,'11111222,11111222,99999999' 
TABS,ioos:station:wmo:42050:1,2017-06-04T12:00:00Z,28.8425,-94.2433,2.0,83.62702962,23.15307755,-99999.0,'11111222,11111222,99999999' 
TABS,ioos:station:wmo:42050:1,2017-06-04T12:30:00Z,28.8425,-94.2433,2.0,85.14214976,23.73526069,-99999.0,'11111222,11111222,99999999' 
TABS,ioos:station:wmo:42050:1,2017-06-04T13:00:00Z,28.8425,-94.2433,2.0,83.31916445,26.5603558,-99999.0,'11111222,11111222,99999999' 
TABS,ioos:station:wmo:42050:1,2017-06-04T13:30:00Z,28.8425,-94.2433,2.0,82.06848781,26.52373465,-99999.0,'11111222,11111222,99999999' 
TABS,ioos:station:wmo:42050:1,2017-06-04T14:00:00Z,28.8425,-94.2433,2.0,79.83461491,27.19692814,-99999.0,'11111222,11111222,99999999' 
TABS,ioos:station:wmo:42050:1,2017-06-04T14:30:00Z,28.8425,-94.2433,2.0,71.9786082,27.60424062,-99999.0,'11111222,11111222,99999999' 
TABS,ioos:station:wmo:42050:1,2017-06-04T15:00:00Z,28.8425,-94.2433,2.0,81.6690123,25.81238462,-99999.0,'11111222,11111222,99999999' 
TABS,ioos:station:wmo:42050:1,2017-06-04T15:30:00Z,28.8425,-94.2433,2.0,84.63816643,26.64659453,-99999.0,'11111222,11111222,99999999' 
TABS,ioos:station:wmo:42050:1,2017-06-04T16:00:00Z,28.8425,-94.2433,2.0,82.68334118,26.69738564,-99999.0,'11111222,11111222,99999999' 